24h Messdaten per 20.10.2019 um 13:08:01

Datum Zeit Luftdruck Temp Balkon Feuchte Balkon Temp Strasse Feuchte Strasse Wind km/h Wind Boe Wind aus (Grad) Regen l/15min Licht Lux Sonne h/Monat
20.10.19 13:08:01 998
20.10.19 13:03:01 998
20.10.19 12:58:01 998 10.7 74
20.10.19 12:53:02 998 10.8 75
20.10.19 12:48:01 998 10.8 75
20.10.19 12:43:01 999 10.8 75
20.10.19 12:38:02 999 10.7 76
20.10.19 12:33:02 998 10.7 77
20.10.19 12:28:01 998 10.8 78
20.10.19 12:23:01 998 10.9 80
20.10.19 12:18:01 998
20.10.19 12:13:01 0.0
20.10.19 12:08:02 998 10.9 84 0.0
20.10.19 12:03:01 998 10.8 83 0.0
20.10.19 11:58:01 998 0.0
20.10.19 11:53:01 998 10.9 86 0.0
20.10.19 11:48:01 998 11.1 88 0.0
20.10.19 11:43:01 998 11.1 88 0.0
20.10.19 11:38:01 998 11.0 88 0.0
20.10.19 11:33:01 998 0.0
20.10.19 11:28:01 998 11.0 88 0.0
20.10.19 11:23:01 998 0.0
20.10.19 11:18:01 999 10.7 86 -37.9 99 0.7
20.10.19 11:13:01 999 10.6 86 0.7 0.0 247.5 0.0
20.10.19 11:08:01 999 10.6 86 0.7 0.0 247.5 0.0
20.10.19 11:03:01 999 0.4 0.0 225 0.0
20.10.19 10:58:01 999 10.6 86 -38.1 99 0.0 0.0 247.5 0.0
20.10.19 10:53:01 998 10.6 86 0.0 0.0 247.5 0.0
20.10.19 10:48:01 998 10.5 86 0.4 2.2 225 0.0
20.10.19 10:43:01 998 10.5 86 0.4 0.0 270 0.0
20.10.19 10:38:01 998 10.5 86 0.4 0.0 270 0.0
20.10.19 10:33:01 998 10.5 86 0.7 0.0 247.5 0.7
20.10.19 10:28:01 998 10.4 86 0.4 0.0 337.5 0.0
20.10.19 10:23:02 998 10.4 87 0.4 0.0 337.5 0.0
20.10.19 10:18:02 998 10.4 87 -39.4 99 0.4 0.0 292.5 0.7
20.10.19 10:13:01 998 10.3 86 0.4 0.0 45 0.0
20.10.19 10:08:01 998 10.2 86 0.4 0.0 45 0.0
20.10.19 10:03:01 998 10.2 87 0.4 0.0 45 0.0
20.10.19 09:58:01 998 10.2 87 -39.6 99 0.0 0.0 270 0.0
20.10.19 09:53:01 998 10.3 88 0.0 0.0 270 0.0
20.10.19 09:48:01 998 10.2 88 -37.8 99 0.0 0.0 270 0.0
20.10.19 09:43:01 998 10.2 88 -36.3 99 0.0 0.0 315 0.0
20.10.19 09:38:02 998 10.2 88 -36.1 99 0.0 0.0 315 0.0
20.10.19 09:33:01 998 10.2 89 -34.8 99 0.0 1.4 270 0.0
20.10.19 09:28:01 998 10.0 87 -35.6 99 0.0 0.0 157.5 0.0
20.10.19 09:23:01 998 10.0 87 -36.1 99 0.0 0.0 157.5 0.0
20.10.19 09:18:01 998 9.9 87 -34.8 99 0.0 0.0 270 0.0
20.10.19 09:13:01 998 9.8 87 -34.4 99 0.0 0.0 247.5 0.0
20.10.19 09:08:01 998 9.8 87 -34.0 99 0.0 0.0 247.5 0.0
20.10.19 09:03:01 998 9.8 87 0.0 0.0 292.5 0.0
20.10.19 08:58:01 998 -31.8 99 0.0 0.0 247.5 0.0
20.10.19 08:53:02 998 9.7 87 -30.6 99 0.0 0.0 247.5 0.0
20.10.19 08:48:02 998 9.7 86 -29.7 99 0.0 0.0 292.5 0.0
20.10.19 08:43:02 998 9.6 86 -16.4 99 0.0 0.0 22.5 0.0
20.10.19 08:38:01 998 9.6 86 -10.0 99 0.0 0.0 22.5 0.0
20.10.19 08:33:01 998 9.5 86 -19.8 99 0.0 0.0 135 0.0
20.10.19 08:28:01 998 9.5 85 -13.1 99 0.0 0.0 225 0.0
20.10.19 08:23:02 998 9.4 85 -19.1 99 0.0 0.0 225 0.0
20.10.19 08:18:02 998 9.4 85 -18.9 99 0.0 0.0 270 0.0
20.10.19 08:13:01 998 9.4 85 -16.9 99 0.0 0.0 247.5 0.0
20.10.19 08:08:01 998 9.4 84 -6.1 99 0.0 0.0 247.5 0.0
20.10.19 08:03:01 0.0 0.0 225 0.0
20.10.19 07:58:01 998 9.3 84 -4.2 99 0.0 0.0 180 0.0
20.10.19 07:53:01 998 9.4 84 12.1 99 0.0 0.0 180 0.0
20.10.19 07:48:01 998 9.4 84 12.8 98 0.0 0.0 247.5 0.0
20.10.19 07:43:01 998 9.3 83 12.8 98 0.0 0.0 202.5 0.0
20.10.19 07:38:02 998 9.2 83 12.7 98 0.0 0.0 202.5 0.0
20.10.19 07:33:02 9.2 83 12.7 98 0.0 0.0 247.5 0.0
20.10.19 07:28:02 998 9.3 84 12.7 98 0.0 0.0 270 0.0
20.10.19 07:23:02 998 9.4 84 12.7 98 0.0 0.0 270 0.0
20.10.19 07:18:02 998 9.4 83 12.7 98 0.0 0.0 225 0.0
20.10.19 07:13:02 998 9.3 83 12.7 98 0.0 0.0 270 0.0
20.10.19 07:08:01 998 9.4 83 12.7 98 0.0 0.0 270 0.0
20.10.19 07:03:01 998 9.3 82 12.7 98 0.0 0.0 225 0.0
20.10.19 06:58:01 998 9.3 82 12.8 98 0.0 0.0 270 0.0
20.10.19 06:53:03 998 9.2 82 12.8 98 0.0 0.0 270 0.0
20.10.19 06:48:03 998 9.2 82 12.8 98 0.0 0.0 225 0.0
20.10.19 06:43:03 998 9.2 82 12.8 98 0.0 0.0 67.5 0.0
20.10.19 06:38:04 998 9.2 81 12.8 98 0.0 0.0 67.5 0.0
20.10.19 06:33:04 998 9.2 82 0.0 0.0 67.5 0.0
20.10.19 06:28:04 998 9.2 81 12.8 98 0.0 0.0 225 0.0
20.10.19 06:23:02 998 9.2 81 12.8 98 0.0 0.0 225 0.0
20.10.19 06:18:02 998 9.2 81 0.0 0.0 247.5 0.0
20.10.19 06:13:01 998 9.0 80 12.8 98 0.0 0.0 270 0.0
20.10.19 06:08:01 998 9.0 80 12.7 98 0.0 0.0 270 0.0
20.10.19 06:03:01 998 9.0 80 12.7 98 0.0 0.0 247.5 0.0
20.10.19 05:58:01 998 9.0 79 12.7 98 0.0 0.0 247.5 0.0
20.10.19 05:53:02 998 9.0 79 12.7 98 0.0 0.0 247.5 0.0
20.10.19 05:48:01 998 9.0 79 12.7 98 0.0 0.0 247.5 0.0
20.10.19 05:43:01 998 9.1 80 12.7 98 0.0 0.0 225 0.0
20.10.19 05:38:01 998 9.2 80 12.7 98 0.0 0.0 225 0.0
20.10.19 05:33:01 998 9.1 78 12.7 98 0.0 0.0 180 0.0
20.10.19 05:28:01 998 9.0 77 12.6 98 0.0 0.0 270 0.0
20.10.19 05:23:02 998 9.0 77 12.7 98 0.0 0.0 270 0.0
20.10.19 05:18:01 998 9.0 78 12.7 98 0.0 0.0 247.5 0.0
20.10.19 05:13:01 998 9.1 78 12.7 97 0.0 0.0 225 0.0
20.10.19 05:08:01 998 9.1 77 12.8 97 0.0 0.0 225 0.0
20.10.19 05:03:01 998 9.1 77 0.0 0.0 247.5 0.0
20.10.19 04:58:01 998 9.2 76 12.7 97 0.0 0.0 270 0.0
20.10.19 04:53:02 998 9.2 76 12.7 97 0.0 0.0 270 0.0
20.10.19 04:48:02 998 9.2 76 12.7 97 0.0 0.0 180 0.0
20.10.19 04:43:02 998 9.2 75 12.7 97 0.0 0.0 337.5 0.0
20.10.19 04:38:01 998 9.0 75 12.7 97 0.0 0.0 337.5 0.0
20.10.19 04:33:01 998 9.0 75 12.7 97 0.0 0.0 112.5 0.0
20.10.19 04:28:01 998 8.9 74 12.7 97 0.0 0.0 225 0.0
20.10.19 04:23:02 998 9.1 74 12.7 97 0.0 0.0 225 0.0
20.10.19 04:18:02 998 8.8 74 12.7 97 0.0 0.0 180 0.0
20.10.19 04:13:02 997 8.9 74 12.7 97 0.0 0.0 112.5 0.0
20.10.19 04:08:01 997 9.0 74 12.8 97 0.0 0.0 112.5 0.7
20.10.19 04:03:01 8.9 73 12.8 97 0.0 0.0 112.5 0.0
20.10.19 03:58:01 998 9.0 73 12.8 97 0.0 0.0 270 0.0
20.10.19 03:53:02 998 9.1 74 12.8 97 0.0 0.0 270 0.0
20.10.19 03:48:02 998 12.7 97 0.0 0.0 270 0.0
20.10.19 03:43:02 998 9.1 73 12.7 97 0.0 0.0 135 0.0
20.10.19 03:38:01 998 9.1 73 12.7 97 0.0 0.0 135 0.0
20.10.19 03:33:01 998 8.8 73 12.7 97 0.0 0.0 135 0.0
20.10.19 03:28:01 998 12.7 97 0.0 0.0 45 0.0
20.10.19 03:23:02 998 8.9 73 12.7 97 0.0 0.0 45 0.0
20.10.19 03:18:02 998 8.9 73 12.7 97 0.0 0.0 202.5 0.0
20.10.19 03:13:02 998 9.0 73 0.0 0.0 135 0.0
20.10.19 03:08:02 998 9.1 73 12.7 97 0.0 0.0 135 0.0
20.10.19 03:03:02 8.9 73 12.8 97 0.0 0.0 90 0.0
20.10.19 02:58:02 998 8.9 73 12.8 97 0.0 0.0 157.5 0.0
20.10.19 02:52:00 998 8.9 73 12.8 97 0.0 0.0 112.5 0.0
20.10.19 02:47:00 998 9.0 73 12.9 97 0.0 0.0 67.5 0.0
20.10.19 02:42:00 998 9.0 73 12.8 97 0.0 0.0 90 0.0
20.10.19 02:37:01 998 9.0 73 12.8 97 0.0 0.0 112.5 0.0
20.10.19 02:32:01 9.1 73 12.8 97 0.0 0.0 112.5 0.0
20.10.19 02:27:00 998 9.0 73 12.8 97 0.0 0.0 112.5 0.0
20.10.19 02:22:01 998 9.0 73 12.8 97 0.0 0.0 135 0.0
20.10.19 02:17:01 998 12.8 97 0.0 0.0 112.5 0.0
20.10.19 02:12:00 998 9.1 73 12.8 97 0.0 0.0 112.5 0.0
20.10.19 02:07:00 998 9.1 72 12.8 97 0.0 0.0 67.5 0.0
20.10.19 02:02:00 998 9.1 72 12.8 96 0.0 0.0 22.5 0.0
20.10.19 01:57:00 998 8.8 72 12.7 96 0.0 0.0 112.5 0.0
20.10.19 01:52:01 998 8.9 72 12.7 96 0.0 0.0 90 0.0
20.10.19 01:47:01 998 9.0 72 12.7 96 0.0 0.0 247.5 0.0
20.10.19 01:42:00 998 8.7 72 12.8 96 0.0 0.0 90 0.0
20.10.19 01:37:00 998 8.8 72 12.7 96 0.0 0.0 270 0.0
20.10.19 01:32:00 998 8.7 72 12.7 96 0.0 0.0 270 0.0
20.10.19 01:27:00 998 12.7 96 0.0 0.0 247.5 0.0
20.10.19 01:22:01 998 8.8 72 12.7 96 0.0 0.0 247.5 0.0
20.10.19 01:17:01 998 8.8 72 0.0 0.0 247.5 0.0
20.10.19 01:12:01 998 12.7 96 0.0 0.0 247.5 0.0
20.10.19 01:07:00 8.7 72 12.7 96 0.0 0.0 247.5 0.0
20.10.19 01:02:00 998 8.7 72 12.8 96 0.0 0.0 157.5 0.0
20.10.19 00:57:00 998 8.7 72 12.8 96 0.0 0.0 157.5 0.0
20.10.19 00:52:00 998 8.7 72 12.8 96 0.0 0.0 337.5 0.0
20.10.19 00:47:00 998 8.8 72 12.8 96 0.0 0.0 225 0.0
20.10.19 00:42:00 998 8.7 71 0.0 0.0 180 0.0
20.10.19 00:37:00 998 8.8 71 12.9 96 0.0 0.0 247.5 0.0
20.10.19 00:32:00 998 8.8 71 12.8 96 0.0 0.0 180 0.0
20.10.19 00:27:00 998 8.8 72 12.9 96 0.0 0.0 225 0.0
20.10.19 00:22:01 998 8.9 72 13.0 96 0.0 0.0 225 0.0
20.10.19 00:17:00 998 8.9 72 13.0 96 0.0 0.0 90 0.0
20.10.19 00:12:00 998 8.9 72 13.0 96 0.0 0.0 180 0.0
20.10.19 00:07:00 998 13.0 96 0.0 0.0 112.5 0.0
20.10.19 00:02:00 998 8.9 72 13.0 96 0.0 0.0 112.5 0.0
19.10.19 23:57:00 998 8.8 71 13.0 96 0.0 0.0 337.5 0.0
19.10.19 23:52:01 998 8.8 71 13.0 96 0.0 0.0 337.5 0.0
19.10.19 23:47:01 998 8.7 71 13.0 96 0.0 0.0 270 0.0
19.10.19 23:42:01 998 8.8 71 13.0 96 0.0 0.0 270 0.0
19.10.19 23:37:01 998 8.8 71 13.0 96 0.0 0.0 0 0.0
19.10.19 23:32:01 998 8.7 71 13.0 96 0.0 0.0 67.5 0.0
19.10.19 23:27:01 998 8.8 71 13.0 96 0.0 0.0 67.5 0.0
19.10.19 23:22:01 998 8.7 71 13.0 96 0.0 0.0 112.5 0.0
19.10.19 23:17:00 998 8.6 71 13.0 96 0.0 0.0 112.5 0.0
19.10.19 23:12:00 998 8.6 71 13.0 96 0.0 0.0 67.5 0.0
19.10.19 23:07:01 998 8.6 71 13.0 96 0.0 0.0 67.5 0.0
19.10.19 23:02:01 998 8.6 71 13.0 96 0.0 0.0 67.5 0.0
19.10.19 22:57:01 998 8.6 71 13.0 96 0.0 0.0 67.5 0.0
19.10.19 22:52:01 998 8.6 70 13.0 96 0.0 0.0 67.5 0.0
19.10.19 22:47:01 998 8.6 70 13.0 96 0.0 0.0 67.5 0.0
19.10.19 22:42:01 998 8.7 70 13.0 96 0.0 0.0 67.5 0.0
19.10.19 22:37:00 998 8.8 71 13.1 95 0.0 0.0 67.5 0.0
19.10.19 22:32:00 998 8.9 71 13.1 95 0.0 0.0 67.5 0.0
19.10.19 22:27:00 998 8.9 71 13.2 95 0.0 0.0 135 0.0
19.10.19 22:22:01 998 8.8 71 13.2 95 0.0 0.0 225 0.0
19.10.19 22:17:01 998 8.8 70 13.2 95 0.0 0.0 180 0.0
19.10.19 22:12:01 998 8.7 70 13.2 95 0.0 0.0 270 0.0
19.10.19 22:07:00 998 8.8 71 13.3 95 0.0 0.0 157.5 0.0
19.10.19 22:02:00 997 8.9 71 13.3 95 0.0 0.0 180 0.0
19.10.19 21:57:00 997 9.1 71 13.3 95 0.0 0.0 135 0.0
19.10.19 21:52:01 997 9.2 70 13.3 95 0.0 0.0 135 0.0
19.10.19 21:47:01 997 9.0 70 13.4 95 0.0 0.0 135 0.0
19.10.19 21:42:00 997 8.7 70 13.4 95 0.0 0.0 315 0.0
19.10.19 21:37:00 997 8.5 69 13.4 95 0.0 0.0 180 0.0
19.10.19 21:32:00 997 8.4 69 13.4 95 0.0 0.0 180 0.0
19.10.19 21:27:00 997 8.5 69 13.6 95 0.0 0.0 247.5 0.0
19.10.19 21:22:01 997 8.6 69 13.6 95 0.0 0.0 247.5 0.0
19.10.19 21:17:01 997 8.6 69 13.6 95 0.0 0.0 225 0.0
19.10.19 21:12:01 997 8.6 68 13.7 95 0.0 0.0 225 0.0
19.10.19 21:07:00 997 8.6 68 13.7 95 0.0 0.0 180 0.0
19.10.19 21:02:00 997 8.6 68 13.8 95 0.0 0.0 135 0.0
19.10.19 20:57:00 997 8.8 68 13.9 95 0.0 0.0 247.5 0.0
19.10.19 20:52:01 997 9.1 69 13.9 95 0.0 0.0 247.5 0.0
19.10.19 20:47:01 997 9.2 69 13.9 95 0.0 0.0 315 0.0
19.10.19 20:42:01 997 9.2 68 14.0 95 0.0 0.0 135 0.0
19.10.19 20:37:01 997 9.4 68 14.1 95 0.0 0.0 247.5 0.0
19.10.19 20:32:01 997 9.3 68 14.1 95 0.0 0.0 247.5 0.0
19.10.19 20:27:01 997 9.4 68 14.1 95 0.0 0.0 247.5 0.0
19.10.19 20:22:02 997 9.4 68 14.1 95 0.0 0.0 270 0.0
19.10.19 20:17:01 997 9.5 67 14.1 95 0.0 0.0 180 0.0
19.10.19 20:12:01 997 9.5 67 14.2 95 0.0 0.0 180 0.0
19.10.19 20:07:00 997 9.7 67 14.3 95 0.0 0.0 180 0.0
19.10.19 20:02:00 997 9.7 68 14.3 95 0.0 0.0 157.5 0.0
19.10.19 19:57:00 997 9.8 68 14.3 95 0.0 0.0 67.5 0.0
19.10.19 19:52:01 997 10.1 67 14.4 95 0.0 0.0 112.5 0.0
19.10.19 19:47:01 996 14.4 95 0.0 0.0 112.5 0.0
19.10.19 19:42:01 996 10.2 67 14.5 95 0.0 0.0 157.5 0.0
19.10.19 19:37:01 996 10.4 67 14.4 95 0.0 0.0 135 0.0
19.10.19 19:32:01 996 10.5 67 14.4 95 0.0 0.0 112.5 0.0
19.10.19 19:27:01 996 10.7 67 14.4 95 0.0 0.0 247.5 0.0
19.10.19 19:22:01 996 10.6 67 14.5 95 0.0 0.0 247.5 0.0
19.10.19 19:17:01 996 10.6 67 14.5 95 0.0 0.0 247.5 0.0
19.10.19 19:12:01 996 10.6 66 14.5 95 0.0 0.0 247.5 0.0
19.10.19 19:07:00 996 10.7 66 14.5 95 0.0 0.0 112.5 0.0
19.10.19 19:02:00 996 10.7 66 14.5 95 0.0 0.0 112.5 0.0
19.10.19 18:57:00 996 10.6 65 14.6 95 0.0 0.0 112.5 0.0
19.10.19 18:52:01 996 10.7 65 14.6 95 0.0 0.0 157.5 0.0
19.10.19 18:47:01 996 10.6 65 14.6 95 0.0 0.0 135 0.0
19.10.19 18:42:01 996 10.7 64 14.7 94 0.0 0.0 225 0.0
19.10.19 18:37:02 996 10.8 64 14.7 94 0.0 0.0 22.5 0.0
19.10.19 18:32:01 996 10.9 64 14.7 94 0.0 0.0 22.5 0.0
19.10.19 18:27:01 996 10.9 63 14.7 94 0.0 0.0 22.5 0.0
19.10.19 18:22:01 996 11.0 63 14.7 94 0.0 0.0 22.5 0.0
19.10.19 18:17:01 996 11.1 63 14.7 94 0.0 0.0 22.5 0.0
19.10.19 18:12:01 996 11.2 63 14.7 94 0.0 0.0 22.5 0.0
19.10.19 18:07:01 996 11.3 63 14.7 94 0.0 0.0 337.5 0.0
19.10.19 18:02:01 996 11.3 62 0.0 0.0 135 0.0
19.10.19 17:57:01 996 11.5 62 14.7 94 0.0 0.0 135 0.0
19.10.19 17:52:01 996 11.7 63 14.8 93 0.0 0.0 247.5 0.0
19.10.19 17:47:01 996 11.8 63 14.8 93 0.0 0.0 315 0.0
19.10.19 17:42:01 996 11.7 64 14.8 93 0.0 0.0 315 0.0
19.10.19 17:37:02 996 11.7 64 14.8 93 0.0 0.0 270 0.0
19.10.19 17:32:01 996 11.5 64 14.8 93 0.0 0.0 315 0.0
19.10.19 17:27:01 996 11.5 64 14.7 93 0.0 0.0 270 0.0
19.10.19 17:22:02 996 11.4 64 14.7 93 0.0 0.0 67.5 0.0
19.10.19 17:17:02 11.4 63 14.7 93 0.0 0.0 247.5 0.0
19.10.19 17:12:01 996 11.4 63 14.7 93 0.0 0.0 247.5 0.0
19.10.19 17:07:01 996 11.4 62 14.7 93 0.0 1.8 247.5 0.0
19.10.19 17:02:01 996 11.3 61 14.7 93 0.0 0.0 135 0.0
19.10.19 16:57:01 996 11.3 61 14.7 93 0.0 0.0 135 0.0
19.10.19 16:52:01 996 11.4 60 14.7 93 0.0 0.0 135 0.0
19.10.19 16:47:01 996 11.5 59 14.7 93 0.0 0.0 22.5 0.0
19.10.19 16:42:01 996 11.5 58 14.7 94 0.0 0.0 22.5 0.0
19.10.19 16:37:01 11.5 58 14.7 94 0.0 0.0 22.5 0.0
19.10.19 16:32:01 996 11.6 57 0.0 0.0 22.5 0.0
19.10.19 16:27:01 996 11.7 57 14.7 94 0.0 0.0 45 0.0
19.10.19 16:22:01 996 11.8 57 14.9 94 0.0 0.0 22.5 0.0
19.10.19 16:17:01 996 12.0 57 14.9 94 0.0 0.0 22.5 0.0
19.10.19 16:12:01 996 12.1 57 15.0 94 0.0 0.0 22.5 0.7
19.10.19 16:07:01 996 12.2 57 15.0 94 0.0 0.0 67.5 0.0
19.10.19 16:02:01 996 12.6 56 15.0 94 0.0 0.0 22.5 0.0
19.10.19 15:57:01 996 12.6 54 15.1 93 0.0 0.0 337.5 0.0
19.10.19 15:52:01 995 12.7 53 15.1 93 0.0 0.0 247.5 0.0
19.10.19 15:47:01 995 13.2 55 15.2 93 0.0 0.0 225 0.0
19.10.19 15:42:01 995 13.0 60 15.1 93 0.0 0.0 247.5 0.0
19.10.19 15:37:01 995 12.5 60 0.0 0.0 247.5 0.0
19.10.19 15:32:01 996 12.3 59 15.1 92 0.0 0.0 270 0.0
19.10.19 15:27:01 996 12.2 58 15.2 92 0.0 0.0 270 0.0
19.10.19 15:22:02 995 12.2 57 15.1 92 0.0 0.0 225 0.0
19.10.19 15:17:02 995 12.3 57 15.2 91 0.0 0.0 270 0.0
19.10.19 15:12:01 996 12.5 57 15.2 91 0.0 0.0 247.5 0.0
19.10.19 15:07:01 995 12.5 57 15.3 91 0.0 0.0 225 0.0
19.10.19 15:02:01 995 0.0 0.0 247.5 0.0
19.10.19 14:57:01 995 12.5 56 15.4 89 0.4 0.0 180 0.0
19.10.19 14:52:02 995 12.5 56 15.5 88 1.1 0.0 247.5 0.0
19.10.19 14:47:01 995 12.5 56 15.5 87 1.4 2.2 135 0.0
19.10.19 14:42:01 995 12.4 55 15.5 86 1.4 0.0 67.5 0.0
19.10.19 14:37:01 995 12.4 54 15.5 86 1.8 0.0 225 0.0
19.10.19 14:32:01 995 12.4 53 15.6 86 2.5 2.2 67.5 0.0
19.10.19 14:27:01 995 12.6 53 15.6 85 2.9 2.9 22.5 0.0
19.10.19 14:22:01 995 12.4 52 15.6 85 2.5 3.6 45 0.7
19.10.19 14:17:01 995 12.5 50 15.7 84 1.8 6.1 90 0.0
19.10.19 14:12:01 995 12.6 50 15.8 83 1.1 2.9 90 0.0
19.10.19 14:07:01 995 12.8 48 15.8 83 0.4 4.7 22.5 0.0
19.10.19 14:02:01 995 13.0 46 15.8 83 0.7 0.0 67.5 0.0
19.10.19 13:57:01 995 13.0 45 15.9 82 0.4 2.9 112.5 0.0
19.10.19 13:52:01 995 13.2 42 15.9 81 0.0 0.0 45 0.0
19.10.19 13:47:01 995 13.8 40 0.0 0.0 315 0.0
19.10.19 13:42:01 995 14.0 38 15.9 80 0.0 0.0 315 0.0
19.10.19 13:37:01 995 14.3 38 16.0 80 0.4 0.0 67.5 0.0
19.10.19 13:32:01 995 14.3 38 0.7 0.0 45 0.0
19.10.19 13:27:01 995 14.6 38 16.2 80 0.7 0.0 22.5 0.0
19.10.19 13:22:01 995 14.3 37 16.2 80 1.1 3.2 135 0.0
19.10.19 13:17:01 995 14.4 39 16.2 79 0.7 1.8 112.5 0.0
19.10.19 13:12:01 995 14.6 37 16.1 78 0.0 0.0 22.5 0.0
Index
© 2002-2012 Thomas Dreßler
Alle Rechte vorbehalten
letzte Scriptänderung 12.11.2012